SCP
0 0 0 0 0 0 0 0 0 0 0 0 0 0 0 0 0 0 0 0 0 0 0 0 0 0 0 0 0 0 0 0 0 0 0 0 0 0 0 0 0 0 0 0
0 0 0 0 0 0 0 0 0 0 0 0 0 0 0 0 0 0 0 0 0 0 0 0 0 0 0 0 0 0 0 0 0 0 0 0 0 0 0 0 0 0 0 0
0 0 0 0 0 0 0 0 0 0 0 0 0 0 0 0 0 0 0 0 0 0 0 0 0 0 0 0 0 0 0 0 0 0 0 0 0 0 0 0 0 0 0 0
0 0 0 0 0 0 0 0 0 0 0 0 0 0 0 0 0 0 0 0 0 0 0 0 0 0 0 0 0 0 0 0 0 0 0 0 0 0 0 0 0 0 0 0
0 0 0 0 0 0 0 0 0 0 0 0 0 0 0 0 0 0 0 0 0 0 0 0 0 0 0 0 0 0 0 0 0 0 0 0 0 0 0 0 0 0 0 0
0 0 0 0 0 0 0 0 0 0 0 0 0 0 0 0 0 0 0 0 0 0 0 0 0 0 0 0 0 0 0 0 0 0 0 0 0 0 0 0 0 0 0 0
0 0 0 0 0 0 0 0 0 0 0 0 0 0 0 0 0 0 0 0 0 0 0 0 0 0 0 0 0 0 0 0 0 0 0 0 0 0 0 0 0 0 0 0
0 0 0 0 0 0 0 0 0 0 0 0 0 0 0 0 0 0 0 0 0 0 0 0 0 0 0 0 0 0 -0 -0 -0 -0 -0 0 0 0 0 0 0 0 0 0
0 0 0 0 0 0 0 0 0 0 0 0 0 0 0 0 0 0 0 0 0 0 0 0 0 0 0 0 0 0 -0 -0 -0 -0 -0 0 0 0 0 0 0 0 0 0
0 0 0 0 0 0 0 0 0 0 0 0 0 0 0 0 0 0 0 0 0 0 0 0 0 0 0 0 0 0 -0 -0 0 0 0 0 0 0 0 0 0 0 0 0
0 0 0 0 0 0 0 0 0 0 0 0 0 0 0 0 0 0 0 0 0 0 0 0 0 0 0 0 0 0 0 0 0 0 0 0 0 0 0 0 0 0 0 0
0 0 0 0 0 0 0 0 0 0 0 0 0 0 0 0 0 0 0 0 0 0 0 0 0 0 0 0 0 0 0 0 0 0 0 0 0 0 0 0 0 0 0 0
0 0 0 0 0 0 0 0 0 0 0 0 0 0 0 0 0 0 0 0 0 0 0 0 0 0 0 0 0 0 0 0 0 0 0 0 0 0 0 0 0 0 0 0
0 0 0 0 0 0 0 0 0 0 0 0 0 0 0 0 0 0 0 0 0 0 0 0 0 0 0 0 0 0 0 0 0 0 0 0 0 0 0 0 0 0 0 0
0 0 0 0 0 0 0 0 0 0 0 0 0 0 0 0 0 0 0 0 0 0 0 0 0 0 0 0 0 0 0 0 0 0 0 0 0 0 0 0 0 0 0 0
0 0 0 0 0 0 0 0 0 0 0 0 0 0 0 0 0 0 0 0 0 0 0 0 0 0 0 0 0 0 0 0 0 0 0 0 0 0 0 0 0 0 0 0
0 0 0 0 0 0 0 0 0 0 0 0 0 0 0 0 0 0 0 0 0 0 0 0 0 0 0 0 0 0 0 0 0 0 0 0 0 0 0 0 0 0 0 0
0 0 0 0 0 0 0 0 0 0 0 0 0 0 0 0 0 0 0 0 0 0 0 0 0 0 0 0 0 0 0 0 0 0 0 0 0 0 0 0 0 0 0 0
0 0 0 0 0 0 0 0 0 0 0 0 0 0 0 0 0 0 0 0 0 0 0 0 0 0 0 0 0 0 0 0 0 0 0 0 0 0 0 0 0 0 0 0
0 0 0 0 0 0 0 0 0 0 0 0 0 0 0 0 0 0 0 0 0 0 0 0 0 0 0 0 0 0 0 0 0 0 0 0 0 0 0 0 0 0 0 0
0 0 0 0 0 0 0 0 0 0 0 0 0 0 0 0 0 0 0 0 0 0 0 0 0 0 0 0 0 0 0 0 0 0 0 0 0 0 0 0 0 0 0 0
0 0 0 0 0 0 0 0 0 0 0 0 0 0 0 0 0 0 0 0 0 0 0 0 0 0 0 0 0 0 0 0 0 0 0 0 0 0 0 0 0 0 0 0
0 0 0 0 0 0 0 0 0 0 0 0 0 0 0 0 0 0 0 0 0 0 0 0 0 0 0 0 0 0 0 0 0 0 0 0 0 0 0 0 0 0 0 0
0 0 0 0 0 0 0 0 0 0 0 0 0 0 0 0 0 0 0 0 0 0 0 0 0 0 0 0 0 0 0 0 0 0 0 0 0 0 0 0 0 0 0 0
0 0 0 0 0 0 0 0 0 0 0 0 0 0 0 0 0 0 0 0 0 0 0 0 0 0 0 0 0 0 0 0 0 0 0 0 0 0 0 0 0 0 0 0
0 0 0 0 0 0 0 0 0 0 0 0 0 0 0 0 0 0 0 0 0 0 0 0 0 0 0 0 0 0 0 0 0 0 0 0 0 0 0 0 0 0 0 0
0 0 0 0 0 0 0 0 0 0 0 0 0 0 0 0 0 0 0 0 0 0 0 0 0 0 0 0 0 0 0 0 0 0 0 0 0 0 0 0 0 0 0 0
Wind_Speed
4 2 2 5 6 7 9 9 9 9 8 10 6 5 4 3 2 2 3 3 3 3 3 3 3 3 3 3 3 3 3 3 3 3 3 3 4 4 4 5 5 5 5 5
3 2 3 6 8 8 9 7 9 8 11 7 4 1 2 3 3 4 4 4 4 3 3 3 4 4 4 4 3 3 3 3 4 4 4 4 4 4 4 5 5 5 5 5
4 2 3 9 8 9 7 7 8 11 10 2 2 3 4 4 4 5 5 4 4 4 4 4 4 4 4 4 3 2 3 3 3 4 4 4 4 4 4 5 5 5 5 5
1 2 7 7 1 5 6 7 8 6 5 4 4 4 4 4 5 5 5 4 4 4 4 3 3 3 3 3 2 2 3 3 3 3 4 4 4 4 5 4 4 5 6 6
2 3 9 6 2 4 4 7 6 8 7 4 1 3 3 3 4 4 4 4 4 3 3 3 3 3 2 2 2 2 3 4 4 3 4 4 4 5 4 4 4 5 5 5
3 3 8 6 1 2 3 6 3 5 6 3 1 1 4 1 1 2 3 3 3 2 2 3 3 2 1 2 2 4 4 4 4 3 4 4 5 4 4 4 5 5 6 5
5 6 10 4 1 3 3 6 2 4 5 4 5 5 3 1 1 2 2 3 2 2 2 3 2 1 2 3 4 5 4 4 4 4 4 4 4 4 4 4 5 5 6 6
5 6 10 2 5 7 6 1 1 2 3 4 4 3 2 2 2 2 2 2 2 2 3 3 2 1 3 4 5 3 3 4 4 4 4 4 3 4 4 4 4 5 5 6
9 9 3 5 6 4 1 2 2 2 2 3 3 3 3 2 3 3 3 3 2 2 3 3 2 2 3 5 3 3 3 4 4 4 4 4 3 3 3 3 3 4 4 5
5 7 5 5 4 3 3 3 3 2 2 2 3 4 3 3 3 3 3 2 2 2 3 4 3 3 4 4 3 2 3 4 4 3 4 3 3 3 3 3 3 4 4 5
6 6 4 4 6 5 3 2 2 2 2 3 3 3 3 3 3 3 3 2 2 2 4 5 4 4 4 3 2 3 3 4 4 3 3 3 3 3 4 4 4 5 4 4
7 5 5 5 3 3 4 4 3 2 2 2 3 4 3 4 3 3 3 2 3 3 4 4 4 4 4 3 2 3 3 4 3 3 3 3 3 4 7 7 10 10 10 8
5 2 3 4 2 2 3 3 3 3 3 3 3 3 3 3 3 3 3 3 4 4 4 4 4 5 4 3 3 3 4 4 3 3 3 3 3 4 5 6 8 10 10 11
3 1 3 3 3 2 2 2 2 2 2 3 3 2 2 3 3 3 4 4 4 4 4 4 4 5 4 3 3 4 4 5 5 3 3 3 4 4 4 5 5 5 7 11
4 4 5 3 2 2 1 1 1 2 2 2 2 2 3 3 4 4 4 4 3 4 4 4 5 6 4 3 4 4 4 3 3 3 3 4 4 4 4 4 5 5 5 6
3 3 3 4 4 3 2 2 3 4 4 3 3 3 4 4 4 4 4 3 3 4 5 5 6 6 4 3 4 3 3 7 6 4 3 3 3 4 4 4 5 4 5 5
3 4 4 4 5 5 5 5 5 5 4 4 4 4 3 3 4 4 4 3 4 5 5 5 6 5 4 4 4 3 3 4 7 5 3 3 4 4 4 4 5 5 5 6
6 6 6 6 5 5 5 5 5 4 4 4 3 3 3 3 4 5 4 4 4 5 5 5 5 4 4 4 3 3 3 3 3 4 4 4 4 4 4 4 5 6 5 6
5 5 5 5 5 4 4 4 4 4 3 3 3 3 4 4 4 4 3 3 4 5 5 4 7 4 4 5 5 3 3 4 4 4 4 6 5 4 4 4 5 5 5 5
3 3 3 3 3 3 4 3 3 3 3 2 3 3 4 4 3 3 3 4 4 5 5 5 4 4 4 5 6 3 3 4 4 4 4 4 4 4 4 5 5 5 5 5
3 3 2 2 2 3 3 3 3 3 3 3 3 4 4 4 3 3 3 4 4 4 4 6 3 3 4 4 5 2 3 3 4 4 4 4 4 4 5 5 5 5 5 5
3 2 3 2 2 3 2 2 3 3 3 3 3 3 3 4 3 3 4 5 4 6 4 3 3 5 6 5 2 2 3 3 3 3 4 4 4 5 5 5 5 5 5 5
3 3 3 2 3 3 2 2 3 3 3 4 4 4 4 4 3 3 4 3 3 6 4 3 6 8 8 3 2 2 3 4 4 4 4 4 5 5 5 5 5 5 5 5
2 2 2 2 1 1 2 3 2 2 3 3 4 4 3 3 3 3 4 6 7 7 4 6 9 9 7 2 2 3 3 4 4 4 5 5 5 5 5 5 5 5 5 6
2 2 1 1 2 2 3 2 2 2 2 2 3 3 3 3 3 3 3 4 7 7 4 6 9 8 4 3 3 4 4 4 5 5 4 5 5 5 5 5 5 5 5 5
2 2 2 3 3 2 2 2 2 2 2 2 3 2 2 2 3 3 3 3 5 6 4 3 4 5 3 4 4 5 5 5 6 5 5 5 5 5 5 5 6 6 6 6
2 1 1 2 2 2 2 2 2 3 2 3 3 3 2 2 2 3 3 3 3 3 4 3 3 3 4 4 5 5 5 5 5 5 5 5 5 5 5 6 6 6 6 6
Wind_Direction
248 250 200 222 221 198 205 210 217 238 238 259 255 248 252 255 275 297 300 302 295 294 296 304 312 316 315 314 318 322 324 322 315 320 325 327 327 328 329 330 326 323 322 320
273 246 246 264 248 218 223 230 239 261 269 263 265 236 250 255 258 267 273 279 290 293 295 297 301 307 312 308 309 316 313 310 319 327 327 328 325 327 329 327 324 323 320 317
268 312 326 269 236 204 211 215 203 229 247 257 275 254 242 245 248 250 261 272 280 283 280 286 290 296 295 295 303 309 308 312 320 323 322 322 322 327 324 321 322 320 316 315
262 23 246 244 158 182 209 239 222 240 264 254 252 276 267 241 231 246 256 267 278 284 290 292 292 297 296 299 303 304 307 308 314 317 315 318 320 318 316 314 313 312 311 310
173 250 275 285 215 167 192 269 222 224 250 263 304 333 294 237 213 232 247 258 265 267 272 283 288 291 295 300 305 307 301 300 303 306 306 310 310 309 307 307 306 306 305 309
165 217 248 256 218 180 126 282 241 200 226 234 119 283 270 262 236 261 271 269 273 282 281 279 283 288 284 292 300 291 290 292 295 295 292 292 294 297 297 296 299 305 308 309
203 234 261 255 185 134 179 255 255 195 207 188 196 223 256 304 294 272 275 279 280 279 276 272 275 255 271 284 278 281 291 293 293 291 285 282 288 291 295 298 305 307 307 307
181 217 253 177 146 191 223 269 202 207 206 199 219 251 274 284 286 293 297 295 285 279 284 283 260 229 265 272 277 287 288 289 289 289 287 292 288 292 295 297 302 305 308 310
198 218 247 179 204 228 205 225 234 218 231 202 222 248 260 267 271 279 279 281 278 263 285 290 262 228 254 274 284 287 289 287 288 290 286 287 282 286 293 294 295 299 303 306
249 260 248 231 245 257 231 227 240 229 225 203 219 239 255 264 274 281 286 285 282 278 285 289 282 265 256 274 276 273 281 288 288 287 289 288 284 280 279 279 282 289 294 298
251 270 299 261 233 239 246 251 264 265 228 213 214 242 244 259 269 272 288 291 277 266 270 276 280 275 278 279 269 274 279 283 286 284 284 288 287 275 275 263 266 276 278 280
233 223 214 249 235 215 217 237 240 246 265 251 217 236 250 259 262 266 277 281 283 276 275 280 282 282 282 275 261 265 283 288 284 283 283 286 292 297 293 289 293 290 289 288
240 252 236 264 259 201 215 235 242 232 232 247 243 232 240 254 261 267 277 278 273 275 278 283 285 283 282 272 262 255 263 276 278 281 281 284 287 292 302 306 300 299 300 300
239 239 265 252 245 249 233 236 235 242 244 238 240 240 241 253 268 270 271 271 274 277 281 282 282 283 283 272 266 267 267 276 280 272 271 272 274 277 282 292 302 301 302 304
250 235 236 251 265 267 244 204 219 254 254 258 243 241 242 251 263 271 277 285 289 284 280 281 282 286 289 274 270 270 269 267 267 269 269 268 272 276 276 278 282 290 297 301
268 259 238 241 247 250 236 221 233 249 249 249 249 251 251 254 265 273 276 271 270 277 279 278 278 283 284 274 275 275 270 280 286 278 274 274 274 276 278 278 281 284 287 291
218 245 240 249 249 245 236 233 235 242 245 247 250 256 260 267 277 278 279 273 263 269 271 268 273 281 276 265 262 268 269 278 289 293 282 277 275 274 275 277 278 280 280 285
230 234 229 226 230 238 245 244 242 242 242 246 252 251 251 255 265 276 284 290 290 289 277 266 269 275 268 263 259 260 264 268 271 272 273 273 273 270 273 276 279 282 287 294
246 244 247 245 237 230 234 238 239 238 242 236 236 246 251 255 261 273 283 284 283 287 286 280 291 295 278 272 280 258 262 270 274 275 272 281 287 282 278 278 280 283 286 288
262 259 255 256 244 231 238 242 236 239 237 226 237 255 265 268 268 273 276 269 259 261 278 287 287 278 275 276 287 271 267 269 272 277 276 272 276 280 281 281 282 283 284 284
272 275 268 259 260 256 243 235 227 237 239 222 227 243 258 269 266 261 269 282 280 273 282 294 297 284 281 286 290 274 268 271 274 275 278 279 280 281 281 283 283 284 284 285
269 266 261 257 259 272 270 248 233 232 236 240 245 248 258 271 271 267 254 257 278 295 300 285 283 289 300 306 291 283 281 281 281 281 279 279 279 280 281 283 282 282 282 282
270 263 260 254 255 268 282 261 241 232 234 240 242 241 246 254 258 262 279 273 276 292 300 286 295 304 312 319 302 290 287 285 283 281 279 277 275 276 278 280 280 281 281 282
279 279 274 271 267 264 271 274 264 253 247 251 250 246 246 263 271 258 259 291 302 302 299 298 308 311 319 319 295 287 284 283 282 281 281 278 275 274 275 277 279 280 279 280
283 281 269 257 257 261 264 275 282 271 262 263 265 262 253 247 258 277 279 280 291 302 300 302 308 314 317 299 289 284 280 277 279 279 277 281 280 279 279 279 279 280 280 279
278 273 265 262 264 268 265 260 263 267 270 277 280 273 267 263 262 271 277 277 281 293 297 294 296 300 294 287 284 284 282 287 291 287 283 283 283 280 279 280 280 278 278 277
296 294 293 298 295 280 269 261 260 265 263 263 276 274 269 273 274 277 279 280 283 287 287 286 285 284 285 285 286 285 285 283 281 280 279 277 277 276 276 276 276 277 277 276